カタログに戻る

SL-8 R/B

運用中PO
NORAD 10745·ROCKET BODY·🇷🇺 Russia

打ち上げ Mar 28, 1978 から Plesetsk Cosmodrome

Loading…

次のパス (今後24時間)

TLE

最新Source: Space-Track

元期: Sep 14, 2026, 06:06 UTC

1 10745U 78031B   26257.25423812  .00000064  00000-0  47672-4 0  9995
2 10745  82.9302 350.3900 0034672 351.1259  37.6522 13.78931645437322

AllMySatでSL-8 R/Bをリアルタイム追跡

Download on the App Store